Погода в Чиньяворыке

Россия / Республика Коми     63°12′31″N   52°40′12″E
темп.,
°C
ветер,
м/с
пор.,
м/с
влажн.,
%
обл.,
%
осадки,
мм/ч
давл.,
гПа
погр.,
м
23 сентября, чт
чт2300:00+5юв128967 0.0 102993
03:00+4вюв119288 0.0 103035
06:00+4юв129254 0.0 102951
09:00+8ююв246728 0.0 1028723
12:00+10ю235415 0.0 1027900
15:00+11ююв245323 0.0 1026877
18:00+6ю22775 0.0 102527
21:00+4ююв25865 0.0 102590
24 сентября, пт
пт2400:00+3ююв25915 0.0 1024105
03:00+3юв25940 0.0 102495
06:00+2юв26932 0.0 1023134
09:00+8юв36673 0.0 1023389
12:00+12ююв45555 0.0 1022751
15:00+12юв356052 0.0 1021728
18:00+8вюв397799 0.0 1021295
21:00+6вюв4118378 0.0 1021317
25 сентября, сб
сб2500:00+8юв41276100 0.0 1020455
03:00+8юв41177100 0.0 1019421
06:00+7юв41276100 0.0 1018486
09:00+8юв41172100 0.0 1018595
12:00+12ююв495896 0.0 10181108
15:00+11ююв31064100 0.0 10181427
18:00+10юв41070100 0.1 10181198
21:00+9юв41075100 0.1 1018766
26 сентября, вс
вс2600:00+8вюв41083100 0.4 1018571
03:00+7вюв4986100 1.2 1019494
06:00+6вюв41185100 0.0 1020596
09:00+7вюв4107996 0.1 1021605
12:00+10юв596161 0.0 1023952
15:00+10вюв496267 0.0 10241170
18:00+8вюв4965100 0.0 1026891
21:00+6вюв4116789 0.0 1029576
27 сентября, пн
пн2700:00+3вюв39765 0.0 1031366
03:00+1вюв39825 0.0 1033271
06:000вюв38865 0.0 1035219
09:00+5вюв35573 0.0 1036471
12:00+8вюв34435 0.0 1036933
15:00+8в234437 0.0 1036940
18:00+4в2265100 0.0 103721
21:00+3вюв1171100 0.0 103810